Flag for Australia Weather past 2 weeks in Melbourne, Victoria, Australia

Now
54 °F

Scattered clouds.


Feels Like: 48 °F
Forecast: 44 / 56 °F
Wind: 24 mph from South

Location: Melbourne Airport

Current Time: Sep 2, 2014 at 1:26:58 PM

Latest Report: Sep 2, 2014 at 1:00 PM


Visibility: N/A

Pressure: 30.09 "Hg

Humidity: 54%

Dew point: 37 °F

Location of MelbourneLocation

Historic Weather in Melbourne — Graph

°F

Melbourne temperature yesterday

Maximum temperature yesterday: 61 °F (at 12:00 AM)
Minimum temperature yesterday: 46 °F (at 7:00 PM)
Average temperature yesterday: 54 °F

Past Weeks' High & Low Weather Summary

 TemperatureHumidityPressure
High70 °F (Aug 31, 1:00 PM)100% (Aug 19, 3:30 AM)30.45 "Hg (Aug 19, 3:30 AM)
Low37 °F (Aug 28, 4:00 AM)34% (Aug 22, 3:00 PM)29.74 "Hg (Sep 1, 4:00 AM)
Average53 °F75%30.24 "Hg
* Reported Aug 18 12:00 Noon — Sep 2 12:00 Noon, Melbourne, Weather by CustomWeather, © 2014

Note: Actual official high and low records may vary slightly from our data, if they occured in-between our weather recording intervals... More about our weather records

Advertising

Melbourne weather history for previous 24 hours

 ConditionsComfort  
Time TempWeatherWind HumidityBarometerVisibility
12:00 PM
Sep 2
55 °FScattered clouds.24 mph55%30.07 "HgN/A
11:30 AM54 °FScattered clouds.21 mph58%30.07 "HgN/A
11:00 AM54 °FScattered clouds.21 mph77%30.09 "HgN/A
10:30 AM54 °FPartly sunny.17 mph72%30.07 "HgN/A
10:00 AM52 °FScattered clouds.18 mph82%30.07 "HgN/A
9:30 AM52 °FScattered showers. Scattered clouds.17 mph77%30.07 "Hg5 mi
9:00 AM50 °FScattered clouds.15 mph76%30.07 "HgN/A
8:30 AM48 °FSprinkles. Scattered clouds.16 mph87%30.04 "HgN/A
8:00 AM48 °FScattered clouds.10 mph82%30.04 "HgN/A
7:30 AM46 °FScattered clouds.10 mph87%30.04 "HgN/A
7:00 AM45 °FScattered clouds.12 mph93%30.01 "HgN/A
6:30 AM45 °FScattered clouds.9 mph93%30.01 "HgN/A
6:00 AM46 °FBroken clouds.10 mph93%29.98 "HgN/A
5:30 AM46 °FPassing clouds.10 mph93%29.98 "HgN/A
5:00 AM46 °FSprinkles. Partly cloudy.16 mph87%29.98 "HgN/A
4:30 AM46 °FPartly cloudy.9 mph87%29.95 "HgN/A
4:00 AM45 °FPassing clouds.10 mph93%29.95 "HgN/A
3:30 AM46 °FPassing clouds.12 mph93%29.95 "HgN/A
3:00 AM46 °FScattered showers. Passing clouds.8 mph93%29.92 "HgN/A
2:00 AM46 °FPassing clouds.8 mph93%29.95 "HgN/A
1:30 AM46 °FPassing clouds.12 mph87%29.92 "HgN/A
1:00 AM46 °FPassing clouds.10 mph93%29.92 "HgN/A
12:30 AM46 °FScattered showers. Partly cloudy.13 mph93%29.92 "Hg5 mi
12:00 AM48 °FPartly cloudy.13 mph82%29.92 "HgN/A
11:30 PM
Sep 1
46 °FPassing clouds.10 mph93%29.92 "HgN/A
11:00 PM48 °FPartly cloudy.9 mph87%29.89 "HgN/A
10:30 PM48 °FPartly cloudy.10 mph87%29.89 "HgN/A
10:00 PM48 °FPartly cloudy.8 mph87%29.89 "HgN/A
9:30 PM48 °FPartly cloudy.3 mph82%29.89 "HgN/A
9:00 PM48 °FPassing clouds.6 mph82%29.89 "HgN/A
8:30 PM48 °FPartly cloudy.7 mph82%29.89 "HgN/A
8:00 PM48 °FPassing clouds.7 mph87%29.86 "HgN/A
7:30 PM46 °FPartly cloudy.7 mph93%29.86 "HgN/A
7:00 PM46 °FPartly cloudy.6 mph93%29.86 "HgN/A
6:30 PM48 °FSprinkles. Passing clouds.13 mph94%29.86 "Hg4 mi
6:00 PM52 °FSprinkles. Passing clouds.10 mph88%29.83 "Hg4 mi
5:30 PM52 °FPartly cloudy.8 mph88%29.83 "HgN/A
5:00 PM52 °FPartly cloudy.8 mph88%29.80 "HgN/A
4:30 PM52 °FSprinkles. Partly sunny.7 mph88%29.80 "HgN/A
4:00 PM52 °FSprinkles. Partly sunny.6 mph88%29.80 "HgN/A
3:00 PM52 °FSprinkles. Partly sunny.7 mph82%29.77 "HgN/A
2:30 PM52 °FSprinkles. Partly sunny.16 mph82%29.77 "HgN/A
2:00 PM55 °FPartly sunny.7 mph82%29.77 "HgN/A
1:30 PM55 °FPartly sunny.8 mph82%29.77 "HgN/A
1:00 PM54 °FLight rain. Broken clouds.10 mph88%29.77 "HgN/A
Weather by CustomWeather, © 2014

See weather overviewHow to use our weather pages